Weather History for Marathon, FL

Change the Weather History Date:

Saturday, February 15, 2014

  Actual Average Record
Temperature  
Mean Temperature 71 °F 72 °F  
Max Temperature 78 °F 77 °F 82 °F (1997)
Min Temperature 64 °F 66 °F 59 °F (1999)
Degree Days  
Heating Degree Days 0 1  
Month to date heating degree days 1 11  
Since 1 July heating degree days 35 70  
Cooling Degree Days 6 7  
Month to date cooling degree days 175 100  
Year to date cooling degree days 359 281  
Growing Degree Days 21 (Base 50)    
Moisture  
Dew Point 60 °F    
Average Humidity 72    
Maximum Humidity 87    
Minimum Humidity 56    
Precipitation  
Precipitation 0.00 in 0.09 in 0.43 in (2004)
Month to date precipitation 0.31 1.17  
Year to date precipitation 3.60 2.78  
Snow  
Snow 0.00 in - - ()
Month to date snowfall 0.0  
Since 1 July snowfall 0.0  
Snow Depth 0.00 in    
Sea Level Pressure  
Sea Level Pressure 30.06 in    
Wind  
Wind Speed 7 mph (WNW)    
Max Wind Speed 15 mph    
Max Gust Speed 21 mph    
Visibility 10 miles    
Events      
T = Trace of Precipitation, MM = Missing Value Source: NWS Daily Summary

Daily Weather History Graph

Daily Weather History Graph

Search for Another Location

Airport:

Trip Planner

Search our weather history database for the weather conditions in past years. The results will help you decide how hot, cold, wet, or windy it might be!

Date:

Astronomy

Feb. 15, 2014 Rise Set
Actual Time 6:58 AM EST 6:18 PM EST
Civil Twilight 6:34 AM EST 6:42 PM EST
Nautical Twilight 6:08 AM EST 7:08 PM EST
Astronomical Twilight 5:41 AM EST 7:35 PM EST
Moon 7:06 PM EST (2/15) 7:04 AM EST (2/15)
Length of Visible Light 12h 07m
Length of Day
11h 20m
Full, 100% of the Moon is Illuminated
Feb 15
Full
Feb 22
Last Quarter
Mar 1
New
Mar 8
First Quarter
Mar 16
Full

Hourly Weather History & Observations

Time (EST) Temp. Dew Point Humidity Pressure Visibility Wind Dir Wind Speed Gust Speed Precip Events Conditions
12:53 AM 66.9 °F 59.0 °F 76% 30.03 in 10.0 mi Calm Calm - N/A   Overcast
1:53 AM 66.9 °F 60.1 °F 79% 30.01 in 10.0 mi Calm Calm - N/A   Overcast
2:53 AM 66.0 °F 60.1 °F 81% 30.00 in 10.0 mi Calm Calm - N/A   Overcast
3:28 AM 66.0 °F 60.1 °F 81% 29.99 in 10.0 mi Calm Calm - N/A   Overcast
3:53 AM 66.0 °F 60.1 °F 81% 29.98 in 10.0 mi Calm Calm - N/A   Mostly Cloudy
4:00 AM 64.9 °F 60.1 °F 84% 29.98 in 10.0 mi Calm Calm - N/A   Scattered Clouds
4:53 AM 64.0 °F 60.1 °F 87% 30.00 in 10.0 mi Calm Calm - N/A   Clear
5:53 AM 64.0 °F 61.0 °F 90% 30.02 in 10.0 mi West 3.5 mph - N/A   Clear
6:53 AM 64.9 °F 61.0 °F 87% 30.05 in 10.0 mi Calm Calm - N/A   Clear
7:53 AM 66.9 °F 62.1 °F 84% 30.07 in 10.0 mi WSW 3.5 mph - N/A   Clear
8:53 AM 72.0 °F 63.0 °F 73% 30.10 in 10.0 mi West 8.1 mph - N/A   Partly Cloudy
9:53 AM 73.9 °F 60.1 °F 62% 30.10 in 10.0 mi West 5.8 mph - N/A   Clear
10:53 AM 75.9 °F 60.1 °F 58% 30.11 in 10.0 mi West 8.1 mph - N/A   Clear
11:53 AM 77.0 °F 61.0 °F 58% 30.09 in 10.0 mi WSW 8.1 mph - N/A   Mostly Cloudy
12:53 PM 75.9 °F 61.0 °F 60% 30.07 in 10.0 mi West 8.1 mph - N/A   Mostly Cloudy
1:53 PM 78.1 °F 62.1 °F 58% 30.05 in 10.0 mi West 10.4 mph 18.4 mph N/A   Clear
2:53 PM 77.0 °F 61.0 °F 58% 30.05 in 10.0 mi WNW 11.5 mph 19.6 mph N/A   Clear
3:53 PM 75.9 °F 61.0 °F 60% 30.05 in 10.0 mi WNW 10.4 mph 17.3 mph N/A   Clear
4:53 PM 75.0 °F 59.0 °F 57% 30.06 in 10.0 mi WNW 6.9 mph - N/A   Clear
5:53 PM 73.0 °F 57.9 °F 59% 30.08 in 10.0 mi NW 10.4 mph - N/A   Clear
6:53 PM 72.0 °F 60.1 °F 66% 30.10 in 10.0 mi NNW 13.8 mph 19.6 mph N/A   Mostly Cloudy
7:53 PM 70.0 °F 61.0 °F 73% 30.12 in 10.0 mi NNW 11.5 mph - N/A   Partly Cloudy
8:53 PM 70.0 °F 57.9 °F 65% 30.13 in 10.0 mi NW 9.2 mph - N/A   Clear
9:53 PM 70.0 °F 60.1 °F 71% 30.14 in 10.0 mi North 10.4 mph - N/A   Partly Cloudy
10:53 PM 69.1 °F 60.1 °F 73% 30.15 in 10.0 mi North 10.4 mph - N/A   Partly Cloudy
11:53 PM 69.1 °F 57.9 °F 68% 30.14 in 10.0 mi NNW 10.4 mph - N/A   Clear